Location: B?lite?ti
(46.2833°N, 22.7333°E)
Time: 17:12:11
(UTC+00:00)

Cosmos 1844 Rocket - Pass Details

Date: 24 January 2021
Orbit: 825 x 843 km, 71.0° (Epoch: 01 March)

Event Time Altitude Azimuth Distance (km) Brightness Sun altitude
Rises 17:00:04 0° 221° (SW) 3,389 6.7 -16.8°
Reaches altitude 10° 17:02:35 10° 227° (SW) 2,457 6.0 -17.2°
Maximum altitude 17:08:03 50° 302° (WNW) 1,064 3.5 -18.2°
Drops below altitude 10° 17:13:32 10° 18° (NNE) 2,463 4.9 -19.1°
Enters shadow 17:14:07 - 20° (NNE) 2,671 5.0 -19.2°
